Fargo, ND

12:30 AM CDT on July 21, 2017 (GMT -0500)
Hector International

Weather History for KFAR - May, 2014

Change the Weather History Date:

Friday, May 16, 2014

  Actual Average Record
Temperature  
Mean Temperature 47 °F 57 °F  
Max Temperature 62 °F 70 °F 94 °F (1987)
Min Temperature 31 °F 45 °F 22 °F (1888)
Degree Days  
Heating Degree Days 18 9  
Month to date heating degree days 277 175  
Since 1 July heating degree days 9603 8631  
Cooling Degree Days 0 1  
Month to date cooling degree days 0 12  
Year to date cooling degree days 0 15  
Moisture  
Dew Point 28 °F    
Average Humidity 55    
Maximum Humidity 82    
Minimum Humidity 28    
Precipitation  
Precipitation 0.00 in 0.10 in 0.84 in (1969)
Month to date precipitation 0.92 1.33  
Year to date precipitation 5.95 5.33  
Snow  
Snow 0.00 in 0.00 in T in (1968)
Month to date snowfall 0.0 0.0  
Since 1 July snowfall 34.9 50.4  
Snow Depth 0.00 in    
Sea Level Pressure  
Sea Level Pressure 30.10 in    
Wind  
Wind Speed 5 mph (West)    
Max Wind Speed 13 mph    
Max Gust Speed 18 mph    
Visibility 10 miles    
Events      
T = Trace of Precipitation, MM = Missing Value Source: NWS Daily Summary

Daily Weather History Graph

Daily Weather History Graph

Search for Another Location

Airport or City:

Trip Planner

Search our weather history database for the weather conditions in past years. The results will help you decide how hot, cold, wet, or windy it might be!

Date:

Astronomy

May. 16, 2014 Rise Set
Actual Time 5:50 AM CDT 8:57 PM CDT
Civil Twilight 5:14 AM CDT 9:33 PM CDT
Nautical Twilight 4:28 AM CDT 10:20 PM CDT
Astronomical Twilight 3:31 AM CDT 11:18 PM CDT
Moon 11:04 PM CDT (5/16) 7:33 AM CDT (5/16)
Length of Visible Light 16h 18m
Length of Day
15h 06m
Waning Gibbous, 95% of the Moon is Illuminated
May 16
Waning Gibbous
May 21
Last Quarter
May 28
New
Jun 5
First Quarter
Jun 12
Full

Hourly Weather History & Observations

Time (CDT) Temp. Windchill Dew Point Humidity Pressure Visibility Wind Dir Wind Speed Gust Speed Precip Events Conditions
12:53 AM 37.4 °F 34.9 °F 26.6 °F 65% 30.14 in 10.0 mi SW 3.5 mph - N/A   Scattered Clouds
1:53 AM 35.1 °F - 27.0 °F 72% 30.15 in 10.0 mi Calm Calm - N/A   Clear
2:53 AM 33.8 °F 29.6 °F 26.6 °F 75% 30.12 in 10.0 mi WSW 4.6 mph - N/A   Clear
3:53 AM 32.0 °F 26.4 °F 27.0 °F 82% 30.14 in 10.0 mi West 5.8 mph - N/A   Clear
4:53 AM 34.0 °F 31.0 °F 27.0 °F 75% 30.14 in 10.0 mi WSW 3.5 mph - N/A   Clear
5:53 AM 33.1 °F - 27.0 °F 78% 30.14 in 10.0 mi Calm Calm - N/A   Clear
6:53 AM 34.0 °F 29.8 °F 28.0 °F 79% 30.15 in 10.0 mi West 4.6 mph - N/A   Clear
7:53 AM 39.0 °F 36.8 °F 30.9 °F 73% 30.15 in 10.0 mi West 3.5 mph - N/A   Clear
8:53 AM 44.1 °F 41.5 °F 32.0 °F 63% 30.15 in 10.0 mi West 4.6 mph - N/A   Clear
9:53 AM 50.0 °F - 30.9 °F 48% 30.14 in 10.0 mi West 8.1 mph - N/A   Clear
10:53 AM 54.0 °F - 26.1 °F 34% 30.13 in 10.0 mi West 10.4 mph - N/A   Partly Cloudy
11:53 AM 54.0 °F - 25.0 °F 33% 30.12 in 10.0 mi NNW 6.9 mph - N/A   Scattered Clouds
12:53 PM 54.0 °F - 26.1 °F 34% 30.11 in 10.0 mi Variable 4.6 mph - N/A   Scattered Clouds
1:53 PM 55.9 °F - 28.0 °F 34% 30.10 in 10.0 mi NNW 6.9 mph - N/A   Overcast
2:53 PM 57.0 °F - 26.1 °F 30% 30.08 in 10.0 mi West 5.8 mph - N/A   Mostly Cloudy
3:53 PM 59.0 °F - 27.0 °F 29% 30.07 in 10.0 mi Variable 4.6 mph - N/A   Mostly Cloudy
4:53 PM 59.0 °F - 27.0 °F 29% 30.06 in 10.0 mi WNW 8.1 mph - N/A   Mostly Cloudy
5:53 PM 61.0 °F - 28.0 °F 29% 30.04 in 10.0 mi Variable 5.8 mph - N/A   Scattered Clouds
6:53 PM 61.0 °F - 28.0 °F 29% 30.04 in 10.0 mi NNE 8.1 mph - N/A   Scattered Clouds
7:53 PM 59.0 °F - 30.0 °F 33% 30.04 in 10.0 mi North 9.2 mph - N/A   Clear
8:53 PM 54.0 °F - 30.0 °F 40% 30.04 in 10.0 mi NE 5.8 mph - N/A   Clear
9:53 PM 51.1 °F - 30.0 °F 44% 30.05 in 10.0 mi Calm Calm - N/A   Clear
10:53 PM 46.0 °F 43.9 °F 30.0 °F 54% 30.05 in 10.0 mi South 4.6 mph - N/A   Clear
11:53 PM 46.9 °F - 30.9 °F 54% 30.04 in 10.0 mi South 5.8 mph - N/A   Clear